Time,TemperatureF,DewpointF,PressureIn,WindDirection,WindDirectionDegrees,WindSpeedMPH,WindSpeedGustMPH,Humidity,HourlyPrecipIn,Conditions,Clouds,dailyrainin,SolarRadiationWatts/m^2,SoftwareType,DateUTC
2013-01-12 00:02:00,-1.0,-6.0,-100.00,NNE,27,2.0,3.0,80,0.00,,,0.00,0.000000,,2013-01-12 07:02:00,
2013-01-12 00:11:00,-1.0,-6.0,-100.00,NNE,27,2.0,3.0,80,0.00,,,0.00,0.000000,,2013-01-12 07:11:00,
2013-01-12 00:32:00,-1.0,-6.0,-100.00,NW,311,1.0,6.0,79,0.00,,,0.00,0.000000,,2013-01-12 07:32:00,
2013-01-12 00:42:00,-1.0,-6.0,-100.00,NW,311,1.0,6.0,79,0.00,,,0.00,0.000000,,2013-01-12 07:42:00,
2013-01-12 00:52:00,-1.0,-6.0,-100.00,NW,311,1.0,6.0,79,0.00,,,0.00,0.000000,,2013-01-12 07:52:00,
2013-01-12 01:02:00,-1.0,-6.0,-100.00,NW,311,1.0,6.0,79,0.00,,,0.00,0.000000,,2013-01-12 08:02:00,
2013-01-12 01:11:00,-1.0,-6.0,-100.00,NW,311,1.0,6.0,79,0.00,,,0.00,0.000000,,2013-01-12 08:11:00,
2013-01-12 01:42:00,-2.0,-7.0,-100.00,NNW,335,1.0,4.0,80,0.00,,,0.00,0.000000,,2013-01-12 08:42:00,
2013-01-12 01:52:00,-2.0,-7.0,-100.00,NNW,335,1.0,4.0,80,0.00,,,0.00,0.000000,,2013-01-12 08:52:00,
2013-01-12 02:02:00,-2.0,-7.0,-100.00,NNW,335,1.0,4.0,80,0.00,,,0.00,0.000000,,2013-01-12 09:02:00,
2013-01-12 02:11:00,-2.0,-7.0,-100.00,NNW,335,1.0,4.0,80,0.00,,,0.00,0.000000,,2013-01-12 09:11:00,
2013-01-12 02:32:00,-1.0,-6.0,-100.00,NNW,342,1.0,2.0,80,0.00,,,0.00,0.000000,,2013-01-12 09:32:00,
2013-01-12 02:42:00,-1.0,-6.0,-100.00,NNW,342,1.0,2.0,80,0.00,,,0.00,0.000000,,2013-01-12 09:42:00,
2013-01-12 02:53:00,-1.0,-6.0,-100.00,NNW,342,1.0,2.0,80,0.00,,,0.00,0.000000,,2013-01-12 09:53:00,
2013-01-12 03:02:00,-1.0,-6.0,-100.00,NNW,342,1.0,2.0,80,0.00,,,0.00,0.000000,,2013-01-12 10:02:00,
2013-01-12 03:11:00,-1.0,-6.0,-100.00,NNW,342,1.0,2.0,80,0.00,,,0.00,0.000000,,2013-01-12 10:11:00,
2013-01-12 03:32:00,-1.0,-5.0,-100.00,NW,313,1.0,4.0,81,0.00,,,0.00,0.000000,,2013-01-12 10:32:00,
2013-01-12 03:43:00,-1.0,-5.0,-100.00,NW,313,1.0,4.0,81,0.00,,,0.00,0.000000,,2013-01-12 10:43:00,
2013-01-12 03:52:00,-1.0,-5.0,-100.00,NW,313,1.0,4.0,81,0.00,,,0.00,0.000000,,2013-01-12 10:52:00,
2013-01-12 04:02:00,-1.0,-5.0,-100.00,NW,313,1.0,4.0,81,0.00,,,0.00,0.000000,,2013-01-12 11:02:00,
2013-01-12 04:12:00,-1.0,-5.0,-100.00,NW,313,1.0,4.0,81,0.00,,,0.00,0.000000,,2013-01-12 11:12:00,
2013-01-12 04:33:00,-1.0,-6.0,-100.00,NNW,330,2.0,5.0,79,0.00,,,0.00,0.000000,,2013-01-12 11:33:00,
2013-01-12 04:42:00,-1.0,-6.0,-100.00,NNW,330,2.0,5.0,79,0.00,,,0.00,0.000000,,2013-01-12 11:42:00,
2013-01-12 04:53:00,-1.0,-6.0,-100.00,NNW,330,2.0,5.0,79,0.00,,,0.00,0.000000,,2013-01-12 11:53:00,
2013-01-12 05:02:00,-1.0,-6.0,-100.00,NNW,330,2.0,5.0,79,0.00,,,0.00,0.000000,,2013-01-12 12:02:00,
2013-01-12 05:11:00,-1.0,-6.0,-100.00,NNW,330,2.0,5.0,79,0.00,,,0.00,0.000000,,2013-01-12 12:11:00,
2013-01-12 05:33:00,-2.0,-7.0,-100.00,NNW,335,2.0,3.0,80,0.00,,,0.00,0.000000,,2013-01-12 12:33:00,
2013-01-12 05:43:00,-2.0,-7.0,-100.00,NNW,335,2.0,3.0,80,0.00,,,0.00,0.000000,,2013-01-12 12:43:00,
2013-01-12 05:53:00,-2.0,-7.0,-100.00,NNW,335,2.0,3.0,80,0.00,,,0.00,0.000000,,2013-01-12 12:53:00,
2013-01-12 06:02:00,-2.0,-7.0,-100.00,NNW,335,2.0,3.0,80,0.00,,,0.00,0.000000,,2013-01-12 13:02:00,
2013-01-12 06:11:00,-2.0,-7.0,-100.00,NNW,335,2.0,3.0,80,0.00,,,0.00,0.000000,,2013-01-12 13:11:00,
2013-01-12 06:33:00,-2.0,-7.0,-100.00,NNW,327,1.0,2.0,79,0.00,,,0.00,0.000000,,2013-01-12 13:33:00,
2013-01-12 06:43:00,-2.0,-7.0,-100.00,NNW,327,1.0,2.0,79,0.00,,,0.00,0.000000,,2013-01-12 13:43:00,
2013-01-12 06:53:00,-2.0,-7.0,-100.00,NNW,327,1.0,2.0,79,0.00,,,0.00,0.000000,,2013-01-12 13:53:00,
2013-01-12 07:02:00,-2.0,-7.0,-100.00,NNW,327,1.0,2.0,79,0.00,,,0.00,0.000000,,2013-01-12 14:02:00,
2013-01-12 07:12:00,-2.0,-7.0,-100.00,NNW,327,1.0,2.0,79,0.00,,,0.00,0.000000,,2013-01-12 14:12:00,
2013-01-12 07:33:00,-3.0,-8.0,-100.00,NNW,327,2.0,3.0,78,0.00,,,0.00,0.000000,,2013-01-12 14:33:00,
2013-01-12 07:43:00,-3.0,-8.0,-100.00,NNW,327,2.0,3.0,78,0.00,,,0.00,0.000000,,2013-01-12 14:43:00,
2013-01-12 07:53:00,-3.0,-8.0,-100.00,NNW,327,2.0,3.0,78,0.00,,,0.00,0.000000,,2013-01-12 14:53:00,
2013-01-12 08:03:00,-3.0,-8.0,-100.00,NNW,327,2.0,3.0,78,0.00,,,0.00,0.000000,,2013-01-12 15:03:00,
2013-01-12 08:12:00,-3.0,-8.0,-100.00,NNW,327,2.0,3.0,78,0.00,,,0.00,0.000000,,2013-01-12 15:12:00,
2013-01-12 08:33:00,-3.0,-8.0,-100.00,NNW,338,2.0,3.0,78,0.00,,,0.00,0.000000,,2013-01-12 15:33:00,
2013-01-12 08:43:00,-3.0,-8.0,-100.00,NNW,338,2.0,3.0,78,0.00,,,0.00,0.000000,,2013-01-12 15:43:00,
2013-01-12 08:53:00,-3.0,-8.0,-100.00,NNW,338,2.0,3.0,78,0.00,,,0.00,0.000000,,2013-01-12 15:53:00,
2013-01-12 09:02:00,-3.0,-8.0,-100.00,NNW,338,2.0,3.0,78,0.00,,,0.00,0.000000,,2013-01-12 16:02:00,
2013-01-12 09:12:00,-3.0,-8.0,-100.00,NNW,338,2.0,3.0,78,0.00,,,0.00,0.000000,,2013-01-12 16:12:00,
2013-01-12 09:33:00,-3.0,-8.0,-100.00,NW,319,2.0,9.0,79,0.00,,,0.00,0.000000,,2013-01-12 16:33:00,
2013-01-12 09:43:00,-3.0,-8.0,-100.00,NW,319,2.0,9.0,79,0.00,,,0.00,0.000000,,2013-01-12 16:43:00,
2013-01-12 09:53:00,-3.0,-8.0,-100.00,NW,319,2.0,9.0,79,0.00,,,0.00,0.000000,,2013-01-12 16:53:00,
2013-01-12 10:02:00,-3.0,-8.0,-100.00,NW,319,2.0,9.0,79,0.00,,,0.00,0.000000,,2013-01-12 17:02:00,
2013-01-12 10:12:00,-3.0,-8.0,-100.00,NW,319,2.0,9.0,79,0.00,,,0.00,0.000000,,2013-01-12 17:12:00,
2013-01-12 10:33:00,0.0,-5.0,-100.00,ENE,76,0.0,4.0,78,0.00,,,-99.99,3.000000,,2013-01-12 17:33:00,
2013-01-12 10:43:00,0.0,-5.0,-100.00,ENE,76,0.0,4.0,78,0.00,,,-99.99,3.000000,,2013-01-12 17:43:00,
2013-01-12 10:53:00,0.0,-5.0,-100.00,ENE,76,0.0,4.0,78,0.00,,,-99.99,3.000000,,2013-01-12 17:53:00,
2013-01-12 11:02:00,0.0,-5.0,-100.00,ENE,76,0.0,4.0,78,0.00,,,-99.99,3.000000,,2013-01-12 18:02:00,
2013-01-12 11:12:00,0.0,-5.0,-100.00,ENE,76,0.0,4.0,78,0.00,,,-99.99,3.000000,,2013-01-12 18:12:00,
2013-01-12 11:33:00,3.0,-3.0,-100.00,ENE,78,1.0,1.0,77,0.00,,,0.00,9.000000,,2013-01-12 18:33:00,
2013-01-12 11:43:00,3.0,-3.0,-100.00,ENE,78,1.0,1.0,77,0.00,,,0.00,9.000000,,2013-01-12 18:43:00,
2013-01-12 11:53:00,3.0,-3.0,-100.00,ENE,78,1.0,1.0,77,0.00,,,0.00,9.000000,,2013-01-12 18:53:00,
2013-01-12 12:03:00,3.0,-3.0,-100.00,ENE,78,1.0,1.0,77,0.00,,,0.00,9.000000,,2013-01-12 19:03:00,
2013-01-12 12:12:00,3.0,-3.0,-100.00,ENE,78,1.0,1.0,77,0.00,,,0.00,9.000000,,2013-01-12 19:12:00,
2013-01-12 12:33:00,9.0,2.0,-100.00,East,97,3.0,5.0,71,0.00,,,0.00,46.000000,,2013-01-12 19:33:00,
2013-01-12 12:43:00,9.0,2.0,-100.00,East,97,3.0,5.0,71,0.00,,,0.00,46.000000,,2013-01-12 19:43:00,
2013-01-12 12:53:00,9.0,2.0,-100.00,East,97,3.0,5.0,71,0.00,,,0.00,46.000000,,2013-01-12 19:53:00,
2013-01-12 13:02:00,9.0,2.0,-100.00,East,97,3.0,5.0,71,0.00,,,0.00,46.000000,,2013-01-12 20:02:00,
2013-01-12 13:12:00,9.0,2.0,-100.00,East,97,3.0,5.0,71,0.00,,,0.00,46.000000,,2013-01-12 20:12:00,
2013-01-12 13:33:00,10.0,3.0,-100.00,SSW,194,2.0,6.0,73,0.00,,,0.00,32.000000,,2013-01-12 20:33:00,
2013-01-12 13:43:00,10.0,3.0,-100.00,SSW,194,2.0,6.0,73,0.00,,,0.00,32.000000,,2013-01-12 20:43:00,
2013-01-12 13:53:00,10.0,3.0,-100.00,SSW,194,2.0,6.0,73,0.00,,,0.00,32.000000,,2013-01-12 20:53:00,
2013-01-12 14:02:00,10.0,3.0,-100.00,SSW,194,2.0,6.0,73,0.00,,,0.00,32.000000,,2013-01-12 21:02:00,
2013-01-12 14:12:00,10.0,3.0,-100.00,SSW,194,2.0,6.0,73,0.00,,,0.00,32.000000,,2013-01-12 21:12:00,
2013-01-12 14:33:00,12.0,4.0,-100.00,SSW,192,2.0,3.0,69,0.00,,,0.00,39.000000,,2013-01-12 21:33:00,
2013-01-12 14:43:00,12.0,4.0,-100.00,SSW,192,2.0,3.0,69,0.00,,,0.00,39.000000,,2013-01-12 21:43:00,
2013-01-12 14:53:00,12.0,4.0,-100.00,SSW,192,2.0,3.0,69,0.00,,,0.00,39.000000,,2013-01-12 21:53:00,
2013-01-12 15:02:00,12.0,4.0,-100.00,SSW,192,2.0,3.0,69,0.00,,,0.00,39.000000,,2013-01-12 22:02:00,
2013-01-12 15:12:00,12.0,4.0,-100.00,SSW,192,2.0,3.0,69,0.00,,,0.00,39.000000,,2013-01-12 22:12:00,
2013-01-12 15:33:00,12.0,4.0,-100.00,SSW,206,1.0,5.0,71,0.00,,,0.00,40.000000,,2013-01-12 22:33:00,
2013-01-12 15:43:00,12.0,4.0,-100.00,SSW,206,1.0,5.0,71,0.00,,,0.00,40.000000,,2013-01-12 22:43:00,
2013-01-12 15:53:00,12.0,4.0,-100.00,SSW,206,1.0,5.0,71,0.00,,,0.00,40.000000,,2013-01-12 22:53:00,
2013-01-12 16:02:00,12.0,4.0,-100.00,SSW,206,1.0,5.0,71,0.00,,,0.00,40.000000,,2013-01-12 23:02:00,
2013-01-12 16:12:00,12.0,4.0,-100.00,SSW,206,1.0,5.0,71,0.00,,,0.00,40.000000,,2013-01-12 23:12:00,
2013-01-12 16:33:00,9.0,2.0,-100.00,SSW,203,0.0,2.0,74,0.00,,,0.00,24.000000,,2013-01-12 23:33:00,
2013-01-12 16:43:00,9.0,2.0,-100.00,SSW,203,0.0,2.0,74,0.00,,,0.00,24.000000,,2013-01-12 23:43:00,
2013-01-12 16:53:00,9.0,2.0,-100.00,SSW,203,0.0,2.0,74,0.00,,,0.00,24.000000,,2013-01-12 23:53:00,
2013-01-12 17:02:00,9.0,2.0,-100.00,SSW,203,0.0,2.0,74,0.00,,,0.00,24.000000,,2013-01-13 00:02:00,
2013-01-12 17:11:00,9.0,2.0,-100.00,SSW,203,0.0,2.0,74,0.00,,,0.00,24.000000,,2013-01-13 00:11:00,
2013-01-12 17:33:00,8.0,1.0,-100.00,WSW,257,1.0,2.0,73,0.00,,,0.00,35.000000,,2013-01-13 00:33:00,
2013-01-12 17:43:00,8.0,1.0,-100.00,WSW,257,1.0,2.0,73,0.00,,,0.00,35.000000,,2013-01-13 00:43:00,
2013-01-12 17:53:00,8.0,1.0,-100.00,WSW,257,1.0,2.0,73,0.00,,,0.00,35.000000,,2013-01-13 00:53:00,
2013-01-12 18:02:00,8.0,1.0,-100.00,WSW,257,1.0,2.0,73,0.00,,,0.00,35.000000,,2013-01-13 01:02:00,
2013-01-12 18:12:00,8.0,1.0,-100.00,WSW,257,1.0,2.0,73,0.00,,,0.00,35.000000,,2013-01-13 01:12:00,
2013-01-12 18:43:00,2.0,-3.0,-100.00,WSW,244,2.0,4.0,80,0.00,,,0.00,6.000000,,2013-01-13 01:43:00,
2013-01-12 18:53:00,2.0,-3.0,-100.00,WSW,244,2.0,4.0,80,0.00,,,0.00,6.000000,,2013-01-13 01:53:00,
2013-01-12 19:02:00,2.0,-3.0,-100.00,WSW,244,2.0,4.0,80,0.00,,,0.00,6.000000,,2013-01-13 02:02:00,
2013-01-12 19:12:00,2.0,-3.0,-100.00,WSW,244,2.0,4.0,80,0.00,,,0.00,6.000000,,2013-01-13 02:12:00,
2013-01-12 19:33:00,0.0,-5.0,-100.00,West,274,1.0,4.0,80,0.00,,,0.00,0.000000,,2013-01-13 02:33:00,
2013-01-12 19:43:00,0.0,-5.0,-100.00,West,274,1.0,4.0,80,0.00,,,0.00,0.000000,,2013-01-13 02:43:00,
2013-01-12 19:53:00,0.0,-5.0,-100.00,West,274,1.0,4.0,80,0.00,,,0.00,0.000000,,2013-01-13 02:53:00,
2013-01-12 20:02:00,0.0,-5.0,-100.00,West,274,1.0,4.0,80,0.00,,,0.00,0.000000,,2013-01-13 03:02:00,
2013-01-12 20:11:00,0.0,-5.0,-100.00,West,274,1.0,4.0,80,0.00,,,0.00,0.000000,,2013-01-13 03:11:00,
2013-01-12 20:33:00,0.0,-5.0,-100.00,NW,316,0.0,2.0,80,0.00,,,0.00,0.000000,,2013-01-13 03:33:00,
2013-01-12 20:43:00,0.0,-5.0,-100.00,NW,316,0.0,2.0,80,0.00,,,0.00,0.000000,,2013-01-13 03:43:00,
2013-01-12 20:53:00,0.0,-5.0,-100.00,NW,316,0.0,2.0,80,0.00,,,0.00,0.000000,,2013-01-13 03:53:00,
2013-01-12 21:02:00,0.0,-5.0,-100.00,NW,316,0.0,2.0,80,0.00,,,0.00,0.000000,,2013-01-13 04:02:00,
2013-01-12 21:12:00,0.0,-5.0,-100.00,NW,316,0.0,2.0,80,0.00,,,0.00,0.000000,,2013-01-13 04:12:00,
2013-01-12 21:33:00,0.0,-5.0,-100.00,WNW,290,0.0,2.0,80,0.00,,,0.00,0.000000,,2013-01-13 04:33:00,
2013-01-12 21:43:00,0.0,-5.0,-100.00,WNW,290,0.0,2.0,80,0.00,,,0.00,0.000000,,2013-01-13 04:43:00,
2013-01-12 21:52:00,0.0,-5.0,-100.00,WNW,290,0.0,2.0,80,0.00,,,0.00,0.000000,,2013-01-13 04:52:00,
2013-01-12 22:03:00,0.0,-5.0,-100.00,WNW,290,0.0,2.0,80,0.00,,,0.00,0.000000,,2013-01-13 05:03:00,
2013-01-12 22:12:00,0.0,-5.0,-100.00,WNW,290,0.0,2.0,80,0.00,,,0.00,0.000000,,2013-01-13 05:12:00,
2013-01-12 22:33:00,1.0,-4.0,-100.00,NNE,17,1.0,4.0,79,0.00,,,0.00,0.000000,,2013-01-13 05:33:00,
2013-01-12 22:42:00,1.0,-4.0,-100.00,NNE,17,1.0,4.0,79,0.00,,,0.00,0.000000,,2013-01-13 05:42:00,
2013-01-12 22:53:00,1.0,-4.0,-100.00,NNE,17,1.0,4.0,79,0.00,,,0.00,0.000000,,2013-01-13 05:53:00,
2013-01-12 23:02:00,1.0,-4.0,-100.00,NNE,17,1.0,4.0,79,0.00,,,0.00,0.000000,,2013-01-13 06:02:00,
2013-01-12 23:12:00,1.0,-4.0,-100.00,NNE,17,1.0,4.0,79,0.00,,,0.00,0.000000,,2013-01-13 06:12:00,
2013-01-12 23:32:00,0.0,-5.0,-100.00,North,359,1.0,4.0,78,0.00,,,0.00,0.000000,,2013-01-13 06:32:00,
2013-01-12 23:42:00,0.0,-5.0,-100.00,North,359,1.0,4.0,78,0.00,,,0.00,0.000000,,2013-01-13 06:42:00,
2013-01-12 23:52:00,0.0,-5.0,-100.00,North,359,1.0,4.0,78,0.00,,,0.00,0.000000,,2013-01-13 06:52:00,